Volver al catálogo

TRANSIT 5B-1

ActivoNavegaciónPO
NORAD 670·PAYLOAD·🇺🇸 United States

Lanzado Sep 28, 1963 desde Vandenberg Space Force Base

Loading…

Próximos Pases (próximas 24 horas)

TLE

ActualizadoSource: Space-Track

Época: Sep 14, 2026, 10:38 UTC

1 00670U 63038B   26257.44344707  .00000062  00000-0  88346-4 0  9999
2 00670  89.9666 332.5897 0042997 137.0658 223.3859 13.44690279 86187

Sigue TRANSIT 5B-1 en tiempo real con AllMySat

Download on the App Store